User: anonymous   Login
Location: ??????
(55.6500°N, 37.8000°E)
Time: 08:21:29
(UTC+00:00)
Language:

Cosmos 2360 Rocket - Orbit

View from above orbital plane
View from above orbital plane
View from above satellite
View from above satellite

Ground track
Ground track

The orbit data is extracted from the following two-line orbital elements,

1 25407U 98045B   24169.91704985 -.00000160  00000-0 -56934-4 0  9999
2 25407  71.0120  65.8137 0009751 266.3576  93.6432 14.16007137337941
Epoch (UTC): 17 June 2024 22:00:33
Eccentricity: 0.0009751
inclination: 71.0120°
perigee height: 832 km
apogee height: 846 km
right ascension of ascending node: 65.8137°
argument of perigee: 266.3576°
revolutions per day: 14.16007137
mean anomaly at epoch: 93.6432°
orbit number at epoch: 33794

The dashed part of the orbit path shows where the satellite is in the earth's shadow,  

DLR